Regional Weather Roundup
Issued by NWS

Home | Current Version | Previous Version | Graphics & Text | Print | Product List | Glossary On
Versions: 1 2 3 4 5 6 7 8 9 10 11 12 13 14 15 16 17 18 19 20 21 22 23 24 25 26 27 28 29 30 31 32 33 34 35 36 37 38 39 40 41 42 43 44 45 46 47 48 49 50
000
ASUS43 KBIS 261510
RWRND
NORTH DAKOTA REGIONAL WEATHER ROUNDUP
NATIONAL WEATHER SERVICE EASTERN NORTH DAKOTA/GRAND FORKS ND
1000 AM CDT THU APR 26 2018

  NOTE: "FAIR" INDICATES FEW OR NO CLOUDS BELOW 12,000 FEET WITH NO
  SIGNIFICANT WEATHER AND/OR OBSTRUCTIONS TO VISIBILITY.

NDZ001>003-009>011-017-261600-
...NORTHWEST NORTH DAKOTA...

CITY           SKY/WX    TMP DP  RH WIND       PRES   REMARKS
WILLISTON      FAIR      49  32  52 S5        30.16F
MINOT          FAIR      49  30  48 W7        30.12F
MINOT AFB      FAIR      49  30  49 W9        30.10F
$$

NDZ018>021-031>035-040>046-261600-
...SOUTHWEST NORTH DAKOTA...

CITY           SKY/WX    TMP DP  RH WIND       PRES   REMARKS
BISMARCK       FAIR      51  33  50 NW9       30.15R
DICKINSON      FAIR      51  32  48 NW8       30.16S
GARRISON         N/A     49  31  49 NW7       30.13F
HETTINGER      FAIR      52  29  41 NW10      30.20R
$$

NDZ004>008-012>016-024-026-027-054-261600-
...NORTHEAST NORTH DAKOTA...

CITY           SKY/WX    TMP DP  RH WIND       PRES   REMARKS
GRAND FORKS    FAIR      46  32  58 N25G35    30.05R
GRAND FORKS AF FAIR      48  28  46 N24       30.05S
DEVILS LAKE    FAIR      45  29  53 NW8       30.10S
$$

NDZ022-023-025-028>030-036>039-047>053-261600-
...SOUTHEAST NORTH DAKOTA...

CITY           SKY/WX    TMP DP  RH WIND       PRES   REMARKS
JAMESTOWN      FAIR      49  29  46 N14       30.08R
FARGO          FAIR      51  31  46 N28G37    30.02R
WAHPETON       FAIR      50  27  40 N24G35    30.01R
$$




USA.gov is the U.S. government's official web portal to all federal, state and local government web resources and services.